Погода в Хадере

Израиль     32°26′06″N   34°55′01″E
темп.,
°C
ветер,
м/с
пор.,
м/с
влажн.,
%
обл.,
%
осадки,
мм/ч
давл.,
гПа
погр.,
м
16 января, вс
вс1623:00+13зюз69665 0.3 1011358
02:00+13з698344 1.8 1009415
05:00+12ссз478395 3.3 1008331
08:00+11с4876100 3.9 1011580
11:00+12с7875100 0.0 10121045
14:00+11с7964100 0.1 10121436
17:00+10ссв486399 0.1 1014469
20:00+9ссв356291 0.1 1016314
17 января, пн
пн1723:00+6всв610623 0.0 1018332
02:00+6св345617 0.0 101989
05:00+5всв33470 0.0 1020211
08:00+6всв37540 0.0 1022256
11:00+10всв45320 0.0 1023927
14:00+11с34320 0.0 10221799
17:00+8ссв23471 0.0 1023208
20:00+7всв23461 0.0 1025183
18 января, вт
вт1823:00+7юв224832 0.0 102534
02:00+7в215278 0.0 102558
05:00+6вюв215810 0.0 102556
08:00+8юв236318 0.0 1026111
11:00+12ююз555810 0.0 1026989
14:00+12юз665912 0.0 10231243
17:00+10юз586416 0.0 1022363
20:00+10ююз596680 0.0 1022361
19 января, ср
ср1923:00+10ююз81360100 0.0 1020631
02:00+9ююз9155691 0.0 1018715
05:00+11юз111692100 3.9 10161061
08:00+12з61071100 8.0 1017501
11:00+13сз9117141 0.5 10181171
14:00+10ссз10107890 1.9 10181061
17:00+10сз61063100 0.1 1020584
20:00+9сз7115798 0.1 1022679
20 января, чт
чт2023:00+7ссв237390 0.2 1024256
02:00+8ссз58588 0.3 1025366
05:00+6ссз34595 0.0 1025226
08:00+8с266310 0.0 1027405
11:00+11сз444849 0.0 10281708
14:00+11зсз55499 0.0 10271626
17:00+9з236037 0.0 1028169
20:00+9ю235890 0.0 1029208